• Em Portugal
  • Lista de países
  • Para 7 dias
  • Temperatura da água
  • Mapas de satélite
  • Mapa do tempo
  • Widgets de tempo
  • user-avatar
    Iniciar Sessão

    Previsão horária em Hasselt

    Hoje, 20 Outubro, Sábado

    Tempo Temperatura Precipitação Vento Pressão Humidade
    00:00 +9°C° 0 mm 1 m/s 767 mmHg 92%
    01:00 +9°C° 0 mm 1 m/s 767 mmHg 93%
    02:00 +8°C° 0 mm 1 m/s 767 mmHg 93%
    03:00 +8°C° 0 mm 1 m/s 767 mmHg 93%
    04:00 +8°C° 0 mm 1 m/s 768 mmHg 93%
    05:00 +7°C° 0 mm 1 m/s 768 mmHg 93%
    06:00 +7°C° 0 mm 1 m/s 768 mmHg 94%
    07:00 +9°C° 0 mm 1 m/s 769 mmHg 87%
    08:00 +10°C° 0 mm 1 m/s 769 mmHg 81%
    09:00 +12°C° 0 mm 1 m/s 769 mmHg 75%
    10:00 +13°C° 0 mm 1 m/s 769 mmHg 68%
    11:00 +14°C° 0 mm 1 m/s 769 mmHg 60%
    12:00 +16°C° 0 mm 1 m/s 769 mmHg 53%
    13:00 +16°C° 0 mm 1 m/s 769 mmHg 53%
    14:00 +16°C° 0 mm 1 m/s 769 mmHg 54%
    15:00 +16°C° 0 mm 2 m/s 769 mmHg 54%
    16:00 +14°C° 0 mm 1 m/s 769 mmHg 61%
    17:00 +12°C° 0 mm 1 m/s 769 mmHg 68%
    18:00 +11°C° 0 mm 1 m/s 769 mmHg 74%
    19:00 +10°C° 0 mm 1 m/s 769 mmHg 76%
    20:00 +10°C° 0 mm 1 m/s 769 mmHg 77%
    21:00 +10°C° 0 mm 1 m/s 769 mmHg 78%
    22:00 +10°C° 0 mm 1 m/s 769 mmHg 79%
    23:00 +9°C° 0 mm 1 m/s 769 mmHg 80%

    Amanhã, 21 Outubro, Domingo

    Tempo Temperatura Precipitação Vento Pressão Humidade
    00:00 +9°C° 0 mm 1 m/s 769 mmHg 81%
    01:00 +8°C° 0 mm 0 m/s 769 mmHg 81%
    02:00 +8°C° 0 mm 0 m/s 768 mmHg 82%
    03:00 +8°C° 0 mm 0 m/s 768 mmHg 82%
    04:00 +8°C° 0 mm 0 m/s 768 mmHg 82%
    05:00 +8°C° 0 mm 1 m/s 768 mmHg 83%
    06:00 +8°C° 0 mm 1 m/s 768 mmHg 83%
    07:00 +10°C° 0 mm 1 m/s 768 mmHg 77%
    08:00 +12°C° 0 mm 1 m/s 768 mmHg 70%
    09:00 +14°C° 0 mm 1 m/s 767 mmHg 64%
    10:00 +15°C° 0 mm 1 m/s 767 mmHg 61%
    11:00 +16°C° 0 mm 1 m/s 767 mmHg 58%
    12:00 +19°C° 0 mm 1 m/s 767 mmHg 55%
    13:00 +19°C° 0 mm 1 m/s 766 mmHg 56%
    14:00 +19°C° 0 mm 1 m/s 766 mmHg 57%
    15:00 +19°C° 0 mm 1 m/s 766 mmHg 58%
    16:00 +16°C° 0 mm 1 m/s 766 mmHg 64%
    17:00 +14°C° 0 mm 1 m/s 766 mmHg 70%
    18:00 +13°C° 0 mm 1 m/s 766 mmHg 75%
    19:00 +12°C° 0 mm 1 m/s 766 mmHg 76%
    20:00 +12°C° 0 mm 1 m/s 766 mmHg 76%
    21:00 +11°C° 0 mm 0 m/s 766 mmHg 76%
    22:00 +11°C° 0 mm 0 m/s 766 mmHg 74%
    23:00 +12°C° 0 mm 0 m/s 766 mmHg 72%

    Depois de amanhã, 22 Outubro, Segunda-feira

    Tempo Temperatura Precipitação Vento Pressão Humidade
    00:00 +13°C° 0 mm 1 m/s 766 mmHg 70%
    01:00 +13°C° 0 mm 1 m/s 767 mmHg 72%
    02:00 +13°C° 0 mm 1 m/s 767 mmHg 73%
    03:00 +13°C° 0 mm 1 m/s 767 mmHg 74%
    04:00 +13°C° 0.1 mm 2 m/s 767 mmHg 77%
    05:00 +12°C° 0.1 mm 3 m/s 767 mmHg 81%
    06:00 +12°C° 0.1 mm 4 m/s 768 mmHg 84%
    07:00 +12°C° 0.2 mm 4 m/s 768 mmHg 83%
    08:00 +12°C° 0.2 mm 5 m/s 769 mmHg 82%
    09:00 +11°C° 0.2 mm 6 m/s 769 mmHg 81%
    10:00 +11°C° 0 mm 6 m/s 770 mmHg 75%
    11:00 +12°C° 0 mm 5 m/s 770 mmHg 70%
    12:00 +13°C° 0 mm 5 m/s 771 mmHg 64%
    13:00 +12°C° 0 mm 5 m/s 771 mmHg 62%
    14:00 +12°C° 0 mm 5 m/s 771 mmHg 60%
    15:00 +12°C° 0 mm 5 m/s 771 mmHg 58%
    16:00 +11°C° 0 mm 4 m/s 771 mmHg 59%
    17:00 +10°C° 0 mm 3 m/s 772 mmHg 60%
    18:00 +9°C° 0 mm 3 m/s 772 mmHg 62%
    19:00 +8°C° 0 mm 2 m/s 772 mmHg 65%
    20:00 +7°C° 0 mm 2 m/s 773 mmHg 68%
    21:00 +7°C° 0 mm 2 m/s 773 mmHg 71%
    22:00 +7°C° 0 mm 1 m/s 773 mmHg 73%
    23:00 +7°C° 0 mm 1 m/s 773 mmHg 75%

    23 Outubro, Terça-feira

    Tempo Temperatura Precipitação Vento Pressão Humidade
    00:00 +7°C° 0 mm 1 m/s 773 mmHg 77%
    01:00 +7°C° 0 mm 1 m/s 772 mmHg 77%
    02:00 +6°C° 0 mm 2 m/s 772 mmHg 77%
    03:00 +6°C° 0 mm 2 m/s 771 mmHg 76%
    04:00 +5°C° 0 mm 3 m/s 771 mmHg 78%
    05:00 +5°C° 0 mm 3 m/s 771 mmHg 79%
    06:00 +5°C° 0 mm 3 m/s 770 mmHg 80%
    07:00 +6°C° 0 mm 4 m/s 770 mmHg 79%
    08:00 +7°C° 0 mm 4 m/s 770 mmHg 78%
    09:00 +9°C° 0 mm 5 m/s 769 mmHg 77%
    10:00 +9°C° 0 mm 5 m/s 769 mmHg 77%
    11:00 +10°C° 0 mm 5 m/s 768 mmHg 76%
    12:00 +10°C° 0 mm 6 m/s 768 mmHg 76%
    13:00 +10°C° 0 mm 6 m/s 768 mmHg 76%
    14:00 +10°C° 0 mm 6 m/s 767 mmHg 77%
    15:00 +11°C° 0 mm 6 m/s 767 mmHg 77%
    16:00 +11°C° 0 mm 6 m/s 766 mmHg 79%
    17:00 +11°C° 0 mm 6 m/s 766 mmHg 81%
    18:00 +10°C° 0 mm 6 m/s 766 mmHg 83%
    19:00 +11°C° 0 mm 6 m/s 766 mmHg 83%
    20:00 +11°C° 0 mm 6 m/s 766 mmHg 84%
    21:00 +11°C° 0 mm 6 m/s 766 mmHg 85%
    22:00 +11°C° 0.2 mm 6 m/s 766 mmHg 86%
    23:00 +12°C° 0.2 mm 5 m/s 765 mmHg 87%

    24 Outubro, Quarta-feira

    Tempo Temperatura Precipitação Vento Pressão Humidade
    00:00 +13°C° 0.2 mm 5 m/s 765 mmHg 88%
    01:00 +13°C° 0.1 mm 5 m/s 765 mmHg 88%
    02:00 +13°C° 0.1 mm 5 m/s 765 mmHg 89%
    03:00 +14°C° 0.1 mm 5 m/s 765 mmHg 89%
    04:00 +14°C° 0 mm 5 m/s 765 mmHg 90%
    05:00 +14°C° 0 mm 5 m/s 765 mmHg 90%
    06:00 +14°C° 0 mm 5 m/s 765 mmHg 91%
    07:00 +14°C° 0.1 mm 5 m/s 765 mmHg 90%
    08:00 +14°C° 0.1 mm 5 m/s 765 mmHg 89%
    09:00 +15°C° 0.1 mm 5 m/s 765 mmHg 88%
    10:00 +15°C° 0.1 mm 5 m/s 765 mmHg 87%
    11:00 +15°C° 0.1 mm 5 m/s 766 mmHg 86%
    12:00 +17°C° 0.1 mm 4 m/s 766 mmHg 85%
    13:00 +17°C° 0 mm 4 m/s 766 mmHg 85%
    14:00 +15°C° 0 mm 4 m/s 766 mmHg 86%
    15:00 +15°C° 0 mm 4 m/s 765 mmHg 86%
    16:00 +16°C° 0 mm 3 m/s 766 mmHg 88%
    17:00 +16°C° 0 mm 3 m/s 766 mmHg 90%
    18:00 +14°C° 0 mm 3 m/s 766 mmHg 91%
    19:00 +14°C° 0 mm 3 m/s 766 mmHg 93%
    20:00 +13°C° 0 mm 3 m/s 766 mmHg 94%
    21:00 +13°C° 0 mm 3 m/s 766 mmHg 96%
    22:00 +13°C° 0 mm 3 m/s 765 mmHg 95%
    23:00 +13°C° 0 mm 3 m/s 765 mmHg 95%

    25 Outubro, Quinta-feira

    Tempo Temperatura Precipitação Vento Pressão Humidade
    00:00 +13°C° 0 mm 3 m/s 765 mmHg 95%
    01:00 +13°C° 0.1 mm 3 m/s 765 mmHg 95%
    02:00 +13°C° 0.1 mm 3 m/s 764 mmHg 95%
    03:00 +13°C° 0.1 mm 3 m/s 764 mmHg 95%
    04:00 +13°C° 0.1 mm 3 m/s 764 mmHg 95%
    05:00 +13°C° 0.1 mm 4 m/s 764 mmHg 95%
    06:00 +13°C° 0.1 mm 4 m/s 764 mmHg 95%
    07:00 +13°C° 0 mm 4 m/s 764 mmHg 91%
    08:00 +13°C° 0 mm 4 m/s 764 mmHg 87%
    09:00 +13°C° 0 mm 4 m/s 763 mmHg 83%
    10:00 +13°C° 0 mm 4 m/s 763 mmHg 79%
    11:00 +14°C° 0 mm 4 m/s 763 mmHg 75%
    12:00 +14°C° 0 mm 4 m/s 763 mmHg 72%
    13:00 +14°C° 0 mm 4 m/s 762 mmHg 71%
    14:00 +14°C° 0 mm 4 m/s 762 mmHg 70%
    15:00 +14°C° 0 mm 3 m/s 761 mmHg 69%
    16:00 +13°C° 0 mm 3 m/s 761 mmHg 74%
    17:00 +11°C° 0 mm 3 m/s 761 mmHg 79%
    18:00 +10°C° 0 mm 2 m/s 761 mmHg 84%
    19:00 +10°C° 0 mm 2 m/s 761 mmHg 85%
    20:00 +10°C° 0 mm 2 m/s 761 mmHg 85%
    21:00 +10°C° 0 mm 2 m/s 761 mmHg 85%
    22:00 +10°C° 0 mm 2 m/s 761 mmHg 85%
    23:00 +10°C° 0 mm 2 m/s 761 mmHg 85%
    Mostrar mais